GFSNW_con_mlcape_000.txt.gz
CAPE
0 0 0 0 0 0 0 0 0 0 0 0 0 0 0 0 0 0 0 0 0 0 0 0 0 0 0 0 0 0 0 0 0 0 0 0 0 0 0 0 6 27 72 153
0 0 0 0 0 0 0 0 0 0 0 0 0 0 0 0 0 0 0 0 0 0 0 0 0 0 0 0 0 0 0 0 0 0 7 0 0 0 0 0 0 0 2 96
3 0 0 0 0 0 0 0 0 0 0 0 0 0 0 0 0 0 0 0 0 0 0 0 0 0 0 0 0 0 0 0 0 0 23 21 0 0 0 0 0 0 5 134
0 0 0 0 0 0 0 0 0 0 0 0 0 0 0 0 0 0 0 0 0 0 0 0 0 0 0 0 0 0 0 0 6 0 10 45 53 27 0 0 0 3 24 24
1 0 0 0 0 0 0 0 0 0 0 0 0 0 0 0 0 0 0 0 0 0 0 0 0 0 0 0 1 0 0 0 0 0 5 12 27 40 14 0 0 5 18 144
19 3 0 0 0 0 0 0 0 0 0 0 0 0 1 0 0 0 0 0 0 0 0 0 0 0 3 2 0 9 0 8 16 6 2 2 49 46 41 2 0 2 135 213
4 2 1 1 0 0 0 0 0 0 0 0 0 1 5 4 0 0 0 0 0 0 0 0 0 0 0 7 14 37 273 53 38 43 30 23 41 40 48 74 20 8 823 209
3 2 1 4 1 0 0 0 0 0 0 1 36 38 17 70 31 0 0 5 2 0 0 0 0 0 0 0 0 10 95 232 59 41 48 6 190 42 1 135 8 55 474 714
4 4 9 12 3 0 0 0 1 1 0 0 17 0 16 41 33 39 0 0 0 0 0 0 0 0 0 0 0 0 1 42 27 9 40 0 10 123 212 215 35 704 688 1216
8 10 16 11 5 0 0 0 0 0 0 0 0 0 0 1 0 65 111 45 13 0 0 0 0 0 1 1 0 0 0 1 0 0 5 20 283 315 190 0 372 805 911 995
14 15 13 4 7 2 0 0 0 0 0 0 0 0 0 0 1 0 8 72 53 29 0 0 0 0 8 57 68 84 11 5 14 19 5 0 242 69 24 915 897 1138 1025 805
1 8 13 12 11 9 1 0 0 0 0 0 0 0 0 0 0 0 0 1 45 40 64 50 63 68 76 91 14 35 9 89 189 353 210 567 1177 1143 1146 940 878 1189 952 468
6 7 5 4 4 7 3 0 0 0 0 0 0 0 0 0 0 0 0 0 10 45 19 0 6 55 2 67 31 48 70 46 109 173 193 532 574 734 668 636 671 695 483 280
3 4 1 7 7 4 4 0 0 2 0 0 3 0 0 0 0 0 0 0 0 13 16 0 0 0 0 0 4 1 0 60 25 44 153 0 218 610 718 585 494 351 157 114
3 2 4 5 3 3 2 1 0 1 1 0 0 0 0 0 0 0 0 0 0 0 0 0 0 0 3 0 0 0 0 6 9 17 163 88 231 928 685 490 320 211 41 0
2 1 1 2 3 1 0 3 0 3 3 1 0 0 0 0 0 0 0 0 0 0 0 9 10 39 6 0 0 0 28 7 199 87 257 303 282 208 119 172 133 108 71 7
0 0 0 0 0 0 2 1 0 0 3 2 0 5 1 0 0 0 0 0 0 0 5 20 15 33 6 0 0 0 43 22 18 52 0 21 0 65 255 162 125 133 80 36
0 0 0 0 0 0 0 0 0 0 1 4 2 0 7 13 15 16 0 0 3 1 11 27 36 50 35 0 0 0 1 1 0 0 11 22 0 444 372 361 215 39 29 44
0 0 0 0 0 3 8 0 0 0 7 12 11 0 13 40 18 24 23 36 18 6 2 8 21 37 24 1 0 0 0 0 0 0 0 0 0 149 485 456 447 140 29 56
0 0 2 21 20 0 0 0 5 15 3 3 3 1 3 4 16 46 57 49 22 24 12 13 11 11 12 12 0 30 52 0 0 0 11 154 383 273 544 392 311 142 28 11
0 4 2 1 0 1 16 13 2 17 20 6 3 4 8 7 8 19 46 77 49 25 20 12 4 9 1 14 15 46 49 1 40 16 57 258 474 664 495 360 258 162 31 4
0 0 0 0 6 21 18 21 27 16 14 9 7 27 18 3 15 32 76 58 32 5 13 17 20 9 40 6 14 5 28 11 43 48 89 158 424 805 606 401 253 91 44 4
2 9 0 11 10 3 11 8 17 28 13 19 31 36 12 21 14 9 62 51 4 28 52 49 33 101 32 7 7 28 18 2 20 66 29 115 781 908 664 368 115 64 4 0
4 0 0 2 7 1 22 18 16 32 29 15 6 15 21 86 30 28 14 20 64 66 14 35 37 156 245 482 62 98 3 2 5 40 180 727 823 723 524 301 85 0 0 0
1 5 0 0 10 7 3 1 1 20 17 5 6 7 28 44 28 31 6 17 8 42 72 64 22 4 21 376 559 650 223 15 278 519 751 708 585 290 107 0 0 0 0 0
0 0 0 5 13 2 8 3 14 10 5 14 33 10 0 2 14 25 2 26 15 3 72 21 54 15 0 363 624 716 789 887 854 681 409 175 26 0 0 0 0 0 0 0
0 0 0 0 1 3 0 0 0 1 7 23 0 1 2 1 5 40 51 52 1 12 38 27 27 48 167 206 360 503 543 460 261 56 10 3 2 1 0 1 1 1 1 3

GFSNW_con_mlcape_006.txt.gz
CAPE
2 0 0 0 0 0 0 0 0 0 0 0 0 0 0 0 0 0 0 0 0 0 0 0 0 0 0 0 0 0 0 0 0 0 0 0 0 0 0 0 0 0 0 47
1 0 0 0 0 0 0 0 0 0 0 0 0 0 0 0 0 0 0 0 0 0 0 0 0 0 0 0 0 0 0 0 0 0 0 0 0 0 0 0 0 0 0 0
0 0 0 0 0 0 0 0 0 0 0 0 0 0 0 0 0 0 0 0 0 0 0 0 0 0 0 0 0 0 0 0 0 0 0 2 2 0 0 0 0 0 0 0
0 0 0 0 0 0 0 0 0 0 0 0 0 0 0 0 0 0 0 0 0 0 0 0 0 0 0 0 0 0 0 0 0 0 0 4 14 8 2 0 0 0 0 4
0 0 0 0 0 0 0 0 0 0 0 0 0 0 0 0 0 0 0 0 0 0 0 0 0 0 0 0 0 0 0 0 0 0 0 0 9 2 3 2 46 0 0 10
1 2 2 0 0 0 0 0 0 0 0 0 0 0 0 0 0 0 0 0 0 0 0 0 0 0 0 0 0 0 27 0 0 0 0 0 0 6 48 31 69 13 0 12
3 3 5 3 0 0 0 0 0 0 0 0 0 0 0 0 0 0 0 0 0 0 0 0 0 0 0 0 0 0 12 145 0 0 0 0 0 46 20 155 441 143 1 47
6 7 3 2 1 0 0 0 0 0 0 0 0 0 0 0 0 0 0 0 0 0 0 0 0 0 0 0 0 0 0 13 64 4 0 0 0 20 97 145 454 48 15 24
13 7 4 2 3 0 0 0 0 0 0 0 0 0 0 0 0 0 0 0 0 0 0 0 0 0 0 0 0 0 0 0 0 13 1 0 2 90 112 60 95 119 96 648
4 5 2 4 4 0 0 0 0 0 0 0 0 0 0 0 0 0 1 0 0 0 0 0 0 0 0 0 0 0 0 0 0 0 0 0 391 514 241 0 0 586 72 266
9 1 1 2 3 2 0 0 0 0 0 0 0 0 0 0 0 0 0 12 9 17 0 0 0 0 0 0 0 0 0 0 0 0 0 0 412 388 267 772 1030 650 116 175
4 2 1 1 2 2 0 0 0 0 0 0 0 0 0 0 0 0 0 0 0 36 2 0 0 0 0 4 0 0 0 0 0 35 31 113 231 559 843 757 848 698 341 347
5 4 4 3 1 1 1 0 0 0 0 0 0 0 0 0 0 0 0 0 0 0 0 0 0 10 0 8 0 12 5 7 75 60 11 25 9 340 449 400 434 582 362 323
2 2 4 3 2 1 1 0 0 0 0 0 0 0 0 0 0 0 0 0 0 0 0 0 0 0 0 0 0 0 0 12 0 31 0 24 52 17 0 0 1 58 186 119
6 6 5 4 5 6 1 0 0 0 0 0 0 0 0 0 0 0 0 0 0 0 0 0 0 0 1 0 0 0 0 0 0 1 38 15 19 121 48 0 24 58 60 54
5 4 2 1 2 2 0 0 0 0 0 0 0 0 0 0 0 0 0 0 0 0 0 0 0 0 7 0 0 99 57 6 17 40 132 92 38 3 63 88 80 77 111 36
1 0 0 0 0 0 0 0 0 0 0 1 0 0 0 1 0 0 0 0 0 0 0 0 0 51 50 0 0 18 0 12 0 6 15 1 64 97 94 63 23 7 0 0
0 0 0 0 0 0 0 0 0 0 0 1 0 0 1 8 30 37 0 0 0 0 0 0 0 0 37 0 0 0 0 36 16 0 1 36 65 107 137 44 25 9 1 0
0 0 0 0 0 0 0 0 0 0 0 1 0 0 2 0 2 23 96 53 11 0 0 0 0 0 0 0 0 0 0 0 0 0 0 3 91 173 143 62 30 7 0 0
0 0 0 10 7 1 0 0 0 2 0 1 0 0 0 0 0 8 17 15 3 10 0 0 0 0 0 0 0 0 0 0 0 0 0 0 0 14 180 107 52 34 2 0
0 0 4 0 5 0 0 1 0 0 0 0 0 0 0 0 0 0 0 3 1 20 3 0 0 0 0 0 0 0 0 5 6 6 9 15 0 11 89 139 100 32 28 17
0 0 0 0 0 0 2 0 0 0 7 4 0 4 0 0 0 0 0 0 0 0 1 7 0 18 43 58 90 143 84 21 25 7 25 15 55 21 90 165 78 51 51 12
0 0 0 0 1 0 1 9 15 7 13 20 8 0 2 0 0 1 0 0 0 0 10 29 17 15 10 0 1 55 119 87 33 28 32 77 141 29 34 106 86 57 44 47
0 0 0 0 0 0 0 0 0 0 0 0 1 2 0 0 0 0 1 0 0 0 0 8 0 0 0 0 0 18 104 125 66 32 15 69 184 194 191 102 123 80 35 1
0 2 0 0 0 0 0 0 1 5 0 0 0 0 1 0 1 4 2 0 2 2 0 1 6 0 0 0 0 0 24 29 124 35 1 94 240 155 75 60 31 4 0 0
0 0 0 0 0 2 3 5 1 0 1 4 1 0 0 0 0 3 1 3 5 2 5 0 0 0 0 0 0 1 5 30 208 104 38 133 165 50 8 0 0 0 0 0
0 0 0 0 0 3 0 0 1 1 0 0 0 0 1 0 1 0 18 3 0 0 0 0 0 0 0 0 8 24 0 0 12 3 1 0 0 0 0 0 0 0 0 0

GFSNW_con_mlcape_009.txt.gz
CAPE
0 0 0 0 0 0 0 0 0 0 0 0 0 0 0 0 0 0 0 0 0 0 0 0 0 0 0 0 0 0 0 0 0 0 0 0 0 0 0 0 0 0 0 0
3 0 0 0 0 0 0 0 0 0 0 0 0 0 0 0 0 0 0 0 0 0 0 0 0 0 0 0 0 0 0 0 0 0 0 0 0 0 0 0 0 0 0 0
3 2 0 0 0 0 0 0 0 0 0 0 0 0 0 0 0 0 0 0 0 0 0 0 0 0 0 0 0 0 0 0 0 0 0 0 0 0 0 0 0 0 0 0
4 3 1 0 0 0 0 0 0 0 0 0 0 0 0 0 0 0 0 0 0 0 0 0 0 0 0 0 0 0 0 0 0 0 0 0 8 12 2 0 0 0 0 0
5 4 2 0 0 0 0 0 0 0 0 0 0 0 0 0 0 0 0 0 0 0 0 0 0 0 0 0 0 0 0 0 0 0 0 0 2 14 22 43 5 0 0 0
5 4 2 1 0 0 0 0 0 0 0 0 0 0 0 0 0 0 0 0 0 0 0 0 0 0 0 0 0 0 4 0 0 0 0 0 0 5 75 30 48 52 2 9
2 2 1 3 0 0 0 0 0 0 0 0 0 0 0 0 0 0 0 0 0 0 0 0 0 0 0 0 0 0 1 47 0 0 0 0 0 54 98 292 450 246 73 21
11 8 5 1 2 0 0 0 0 0 0 0 0 0 0 0 0 0 0 0 0 0 0 0 0 0 0 0 0 0 0 11 49 4 0 0 7 58 176 117 280 91 55 87
6 3 7 8 2 0 0 0 0 0 0 0 0 0 0 0 0 0 0 0 0 0 0 0 0 0 0 0 0 0 0 0 5 26 0 0 5 246 586 101 58 159 129 362
3 3 1 1 1 0 0 0 0 0 0 0 0 0 0 0 0 0 0 0 0 0 0 0 0 0 0 0 0 0 0 0 0 0 0 0 229 392 396 24 4 132 494 496
2 1 1 0 1 2 0 0 0 0 0 0 0 0 0 0 0 0 0 0 0 7 0 0 0 0 0 0 0 0 0 0 0 0 0 0 381 334 158 709 825 112 439 462
6 3 0 0 2 2 0 0 0 0 0 0 0 0 0 0 0 0 0 0 0 0 0 0 0 8 0 0 0 0 0 0 0 0 0 251 337 725 796 881 758 317 316 499
10 5 3 1 2 0 0 0 0 0 0 0 0 0 0 0 0 0 0 0 0 0 0 0 0 4 1 1 0 0 0 5 95 1 43 68 400 441 485 740 754 427 231 237
7 2 1 3 2 4 0 0 0 0 0 0 0 0 0 0 0 0 0 0 0 0 0 0 0 0 0 1 6 0 0 3 41 48 40 61 259 122 148 485 538 456 263 223
2 5 6 5 6 1 0 0 0 0 0 0 0 0 0 0 0 0 0 0 0 0 0 0 0 0 0 0 0 12 0 10 38 50 57 15 103 40 9 8 42 83 11 0
4 2 2 1 2 2 0 0 0 0 0 0 0 0 0 0 0 0 0 0 0 0 0 0 0 0 0 0 0 61 56 46 55 82 144 113 130 138 89 97 170 90 48 2
1 0 0 0 0 0 0 0 0 0 0 0 0 0 0 0 0 0 0 0 0 0 0 0 0 17 20 0 0 14 49 102 110 155 138 75 90 8 204 159 71 32 1 0
0 0 0 0 0 0 0 0 0 0 0 0 0 0 0 0 0 5 0 0 0 0 0 0 1 0 12 0 0 0 0 1 126 119 67 16 18 71 209 78 26 22 0 0
0 0 0 0 0 0 0 0 0 0 0 0 0 0 1 0 0 0 15 0 0 0 0 0 0 0 0 0 0 0 1 13 77 23 20 31 112 166 188 99 46 37 6 0
0 0 0 8 0 0 0 0 0 0 0 0 0 0 0 0 0 0 0 0 4 25 0 0 0 0 0 0 0 0 0 32 0 0 0 0 2 79 142 102 84 60 12 0
0 0 0 0 0 0 0 1 0 0 0 0 0 0 0 0 0 0 0 0 0 1 8 1 0 0 6 0 0 2 4 0 0 0 0 0 0 0 13 79 58 34 21 0
0 1 0 0 0 0 0 0 0 0 6 5 0 7 0 0 0 0 0 0 0 0 0 27 3 25 0 0 0 0 20 35 13 0 0 0 7 0 0 32 39 36 3 0
0 0 0 0 1 0 0 2 14 3 11 13 9 0 2 0 0 0 0 0 0 0 13 30 11 0 0 0 0 0 0 10 33 15 0 0 13 3 58 95 62 23 21 0
0 0 0 0 0 0 0 0 2 3 2 0 0 2 1 0 0 3 4 0 0 5 8 0 0 0 0 0 0 0 0 3 27 60 2 15 5 42 151 154 97 54 27 6
0 0 0 0 0 0 0 0 0 1 0 0 0 0 0 0 0 5 4 0 0 1 1 1 11 0 0 0 0 0 0 16 24 90 24 53 77 86 60 46 28 27 8 2
0 0 0 0 0 0 1 0 2 1 0 0 0 0 0 0 0 1 1 0 7 2 0 0 0 0 0 0 0 0 0 1 15 28 31 110 193 88 9 2 0 0 0 0
0 0 0 0 0 0 0 4 22 15 3 0 0 0 0 0 1 0 7 1 0 0 0 0 0 0 0 0 0 2 0 0 0 49 109 66 1 0 0 0 0 0 0 0

GFSNW_con_mlcape_015.txt.gz
CAPE
2 1 1 0 0 0 0 0 0 0 0 0 0 0 0 0 0 0 0 0 0 0 0 0 0 0 0 0 0 0 0 0 0 0 0 0 0 0 0 0 0 0 0 0
2 2 0 0 0 0 0 0 0 0 0 0 0 0 0 0 0 0 0 0 0 0 0 0 0 0 0 0 0 0 0 0 0 0 0 0 0 0 0 0 0 0 0 0
2 2 0 0 0 0 0 0 0 0 0 0 0 0 0 0 0 0 0 0 0 0 0 0 0 0 0 0 0 0 0 0 0 0 0 0 0 0 0 0 0 0 0 0
2 2 1 0 0 0 0 0 0 0 0 0 0 0 0 0 0 0 0 0 0 0 0 0 0 0 0 0 0 0 0 0 0 0 0 0 0 14 0 0 23 11 112 13
3 2 2 0 0 0 0 0 0 0 0 0 0 0 0 0 0 0 0 0 0 0 0 0 0 0 0 0 0 0 0 0 0 0 0 0 0 0 2 0 0 0 7 63
4 2 1 0 0 0 0 0 0 0 0 0 0 0 0 0 0 0 0 0 0 0 0 0 0 0 0 0 0 0 0 0 0 0 2 12 0 0 5 90 126 141 78 255
5 4 2 1 0 0 0 0 0 0 0 0 0 0 0 0 0 0 0 0 0 0 0 0 0 0 0 0 0 0 0 0 0 0 0 0 0 0 94 200 454 317 615 403
5 3 5 2 0 0 0 0 0 0 0 0 0 0 0 0 0 0 0 0 0 0 0 0 0 0 0 0 0 0 0 0 13 0 0 0 48 380 773 647 574 743 469 309
2 1 1 4 1 0 0 0 0 0 0 0 0 0 0 0 0 0 0 0 0 0 0 0 0 0 0 0 0 0 0 0 0 0 0 0 13 629 891 834 75 405 488 449
1 4 6 2 2 0 0 0 0 0 0 0 0 0 0 0 0 0 0 0 0 0 0 0 0 0 0 0 0 0 0 0 0 0 97 26 0 641 658 60 32 569 497 531
3 6 5 5 4 2 0 0 0 0 0 0 0 0 0 0 0 0 0 0 0 0 0 0 0 0 0 0 0 0 0 0 0 0 0 4 215 664 255 484 1105 965 883 696
7 7 3 6 5 3 0 0 0 0 0 0 0 0 0 0 0 0 0 0 0 0 0 0 0 0 1 0 0 0 0 0 0 0 0 0 373 552 635 721 904 807 867 559
9 2 1 0 1 3 3 0 0 0 0 0 0 0 0 0 0 0 0 0 0 0 0 0 0 0 0 26 28 23 15 54 60 21 18 72 414 624 459 623 970 782 760 556
3 1 3 2 4 3 4 1 0 0 0 0 0 0 0 0 0 0 0 0 0 0 0 0 0 0 0 1 6 5 21 48 87 61 62 96 282 431 426 587 432 401 494 333
7 1 2 3 4 4 0 0 0 0 0 0 0 0 0 0 0 0 0 0 0 0 0 0 0 0 0 0 0 4 18 73 60 67 88 164 160 137 218 498 383 186 220 73
4 5 5 3 0 3 0 0 0 0 0 0 0 0 0 0 0 0 0 0 0 0 0 0 0 0 1 11 35 0 15 1 41 102 76 165 169 264 206 118 153 156 123 7
3 3 2 0 0 0 0 0 0 0 0 0 0 0 0 0 0 0 0 0 0 0 0 0 0 0 0 1 1 8 0 0 0 14 70 187 181 137 208 221 104 19 3 0
1 0 0 0 0 0 0 0 0 0 0 0 0 0 0 0 3 9 0 0 0 0 0 0 0 0 17 0 1 0 0 0 0 0 32 37 22 130 144 116 113 104 72 2
0 0 0 0 0 0 0 0 0 0 0 0 0 0 4 0 0 0 10 0 0 0 0 0 0 0 5 2 0 0 6 0 0 0 21 75 42 54 108 126 44 70 73 31
0 0 0 0 0 0 0 0 0 0 1 0 0 0 0 0 0 0 0 0 2 0 0 0 0 0 4 33 16 0 0 7 7 0 67 85 0 10 66 91 252 222 166 54
0 0 1 0 0 1 2 1 0 0 0 0 0 0 0 0 1 2 0 0 2 9 0 0 1 0 24 0 11 2 2 0 0 11 1 0 0 0 0 77 296 276 211 98
0 1 0 0 0 2 1 0 0 0 6 12 7 10 0 0 0 4 0 0 1 5 0 1 1 3 25 1 2 3 3 0 0 3 21 2 0 0 0 4 238 327 206 71
1 0 0 0 0 0 0 0 2 4 14 23 27 3 6 1 0 4 0 0 3 0 0 15 16 15 5 0 0 0 0 0 0 0 15 27 6 0 0 2 88 234 146 60
0 0 0 0 0 0 0 3 2 2 8 12 0 2 0 0 4 10 2 5 0 3 2 6 2 0 0 0 0 0 0 0 0 0 0 17 36 0 0 1 44 66 131 64
0 0 0 0 0 0 0 0 0 0 0 0 0 0 0 0 1 6 5 11 2 7 0 1 3 2 0 0 1 1 0 1 0 0 0 19 26 35 68 113 185 221 169 82
0 0 0 0 0 0 0 2 1 1 3 0 0 0 0 1 1 5 6 13 6 2 3 3 0 1 0 2 2 1 2 2 2 1 5 39 110 83 93 116 121 119 101 48
0 0 0 0 0 0 0 3 3 0 4 0 4 1 0 0 1 3 1 12 0 1 0 0 2 1 1 3 2 1 2 1 2 3 12 11 21 49 39 12 9 10 15 3

GFSNW_con_mlcape_021.txt.gz
CAPE
1 0 0 0 0 0 0 0 0 0 0 0 0 0 0 0 0 0 0 0 0 0 0 0 0 0 0 0 0 0 0 1 2 0 0 0 0 7 9 19 52 47 62 6
0 1 0 0 0 0 0 0 0 0 0 0 0 0 0 0 0 0 0 0 0 0 0 0 0 0 0 0 0 0 0 0 0 0 0 0 0 0 0 45 106 217 261 195
1 0 0 0 0 0 0 0 0 0 0 0 0 0 0 0 0 0 0 0 0 0 0 0 0 0 0 0 0 0 0 0 0 6 12 24 0 0 0 0 42 38 13 124
1 1 0 0 0 0 0 0 0 0 0 0 0 0 0 0 0 0 0 0 0 0 0 0 0 0 0 0 0 0 0 0 0 3 0 0 5 8 40 0 3 28 127 18
2 0 0 0 0 0 0 0 0 0 0 0 0 0 0 0 0 0 0 0 0 0 0 0 0 0 0 0 0 0 0 12 0 1 0 0 0 0 0 10 6 42 69 34
1 1 0 0 0 0 0 0 0 0 0 0 0 0 0 0 0 0 0 0 0 0 0 0 0 0 0 2 0 0 1 7 0 1 0 4 12 2 0 0 96 90 122 168
0 4 1 0 0 0 0 0 0 0 0 0 0 0 0 0 0 0 0 0 0 0 0 0 0 0 0 0 0 0 5 35 9 0 1 2 60 79 88 14 5 25 78 125
1 4 0 0 0 0 0 0 0 0 0 0 0 0 0 0 0 0 0 0 0 0 0 0 0 0 0 0 0 0 0 0 0 0 0 0 49 67 65 9 4 29 17 212
6 5 2 1 0 0 0 0 0 0 0 0 0 0 0 0 0 0 0 0 0 0 0 0 0 0 0 0 0 0 0 0 0 0 0 1 35 182 354 184 205 247 637 654
11 5 1 2 0 0 0 0 0 0 0 0 0 0 0 0 0 0 0 1 0 0 0 0 0 0 0 0 0 0 0 0 0 0 0 0 7 1001 946 105 557 1861 1719 1486
3 2 3 3 2 0 0 0 0 0 0 0 0 0 0 0 0 0 2 0 0 0 0 0 0 0 0 0 0 4 0 0 0 0 0 0 315 593 364 1910 2066 2099 2020 1790
7 2 5 3 3 0 0 0 0 0 0 0 0 0 0 0 0 0 0 0 6 0 0 0 0 0 0 3 0 0 8 0 36 2 0 1075 1097 1848 1997 1968 2073 2307 2205 1866
9 3 3 3 1 0 0 0 0 0 0 0 0 0 0 0 0 0 0 0 31 17 0 1 5 8 33 20 0 20 22 9 54 7 35 566 972 1402 1729 1788 2004 2090 2047 1944
0 7 2 1 0 0 0 0 0 0 0 0 1 0 0 0 0 0 0 0 0 0 0 0 1 19 19 25 18 61 205 291 1 0 663 606 1071 1098 1251 1611 1778 1921 2009 1826
0 1 3 2 0 0 0 0 0 0 0 0 0 0 0 0 0 0 0 0 0 0 0 0 0 3 39 31 7 37 77 207 256 282 466 558 886 941 1059 1232 1416 1607 1465 1148
0 0 1 1 0 0 0 3 0 0 0 0 2 0 0 0 0 0 0 0 0 0 0 0 1 43 25 11 23 2 70 90 42 33 213 509 639 769 827 968 999 1245 1140 871
0 0 0 0 0 0 1 0 0 0 0 0 2 4 0 2 0 0 1 0 0 0 0 0 2 19 3 1 12 136 93 76 50 24 47 365 265 365 481 766 811 700 653 323
0 0 0 0 0 0 4 3 0 0 0 0 6 26 5 0 9 15 7 1 0 0 0 1 2 1 13 0 0 0 40 58 21 19 55 64 179 193 316 395 644 649 593 283
0 0 0 0 0 10 1 0 0 1 1 1 0 27 68 0 35 59 12 28 26 9 9 2 5 8 2 10 5 0 21 52 25 26 38 66 84 131 134 123 331 478 368 330
0 0 3 10 9 0 0 0 2 5 0 0 0 29 39 11 38 28 48 47 27 20 9 35 18 23 14 8 14 61 71 54 80 62 51 24 172 157 27 43 41 340 346 374
0 22 16 6 0 7 9 7 11 2 4 0 4 29 16 15 28 46 76 98 114 37 48 27 18 32 18 1 28 34 55 58 71 88 93 91 147 126 88 1 0 1 408 348
4 0 0 23 15 8 7 9 8 6 8 13 18 24 38 16 39 115 141 30 38 23 78 44 19 104 170 79 5 6 31 51 48 53 73 93 106 168 181 74 23 30 288 465
0 8 26 9 7 0 2 7 8 5 16 24 39 44 44 84 94 93 80 31 27 34 11 34 112 125 29 10 8 0 8 9 69 66 89 97 123 151 170 177 52 77 24 160
19 17 0 8 3 0 18 21 18 41 16 31 14 13 21 90 126 97 69 66 72 26 10 41 37 31 5 4 4 7 8 7 55 96 203 231 249 267 255 268 191 60 332 332
12 1 0 0 5 14 5 3 17 13 15 13 16 11 15 26 28 61 56 30 15 21 46 20 8 18 3 2 10 2 8 9 10 141 249 340 377 492 526 478 236 113 268 346
21 10 11 8 9 7 19 27 34 21 15 17 18 14 11 4 6 5 12 13 21 32 13 13 12 11 7 15 31 16 2 8 4 15 225 388 478 588 637 637 536 499 727 729
20 16 4 8 22 17 16 58 32 16 7 10 3 4 18 8 6 5 18 24 39 3 2 3 11 2 0 5 6 0 4 4 5 12 211 336 847 1062 1046 1065 938 827 949 816

GFSNW_con_mlcape_024.txt.gz
CAPE
0 0 0 0 0 0 0 0 0 0 0 0 0 0 0 0 0 0 0 0 0 0 0 13 0 0 0 0 0 10 3 3 35 8 0 4 0 1 11 39 5 28 34 108
0 0 0 0 0 0 0 0 0 0 0 0 0 0 0 0 0 0 0 0 0 0 0 0 0 0 0 0 0 0 4 0 0 35 40 11 0 0 0 0 8 52 162 50
1 0 0 0 0 0 0 0 0 0 0 0 0 0 0 0 0 0 0 0 0 0 0 0 17 0 0 0 0 0 0 44 1 13 48 2 29 45 12 0 0 1 47 160
1 0 0 0 0 0 0 0 1 0 0 0 0 0 0 0 0 0 0 0 0 0 0 0 0 0 0 0 0 0 0 10 11 0 0 0 29 82 32 2 0 3 26 130
0 0 0 0 0 0 0 0 0 0 0 0 0 0 0 0 0 0 0 0 0 0 0 0 0 0 0 0 0 0 0 0 0 1 34 17 1 0 0 0 0 38 0 46
0 4 0 0 0 0 0 0 0 0 0 0 0 0 0 0 0 0 0 0 0 0 0 0 0 0 6 17 0 20 0 3 7 27 39 28 8 0 0 0 0 0 11 146
1 6 0 0 0 0 0 0 0 0 0 0 0 0 0 0 0 0 0 0 0 0 0 0 0 0 0 0 12 45 201 177 158 133 35 3 5 0 8 41 28 0 14 278
5 4 0 0 0 0 0 0 0 0 0 0 0 0 0 0 0 0 0 0 0 0 0 0 0 0 0 0 0 0 0 6 4 29 4 3 0 0 7 46 54 775 757 556
3 1 2 0 0 0 0 0 0 0 0 0 0 0 0 0 1 0 0 0 0 0 0 0 0 0 0 0 0 0 0 0 0 0 0 0 0 0 159 244 63 1425 663 113
3 0 1 2 0 0 0 0 0 0 0 0 0 0 0 0 0 0 1 0 0 0 0 0 0 0 0 0 0 0 0 0 0 0 0 0 0 1 439 38 879 1880 1188 254
7 0 0 1 0 0 0 0 0 0 0 0 0 0 0 0 0 0 0 7 1 0 0 0 0 0 0 0 0 8 0 0 0 0 0 0 0 139 728 1833 2258 2035 1896 1632
1 4 2 1 1 0 0 0 0 0 0 0 0 0 0 0 0 0 0 0 0 12 0 0 0 0 0 6 7 0 19 5 18 0 5 655 1462 2049 2150 2141 2184 2108 2083 1888
0 0 0 0 0 0 0 0 0 0 0 0 0 0 0 0 0 0 0 0 0 41 8 0 1 0 0 28 18 45 7 107 143 202 361 1061 1386 1429 1384 1742 1917 1827 1743 1803
0 0 0 1 0 0 0 0 0 0 0 0 0 0 0 0 0 0 0 0 0 0 0 0 0 12 38 51 37 23 119 157 167 95 618 682 602 905 999 1308 1697 1954 1995 1941
0 0 0 0 0 0 0 0 0 0 0 0 1 0 0 0 0 0 0 0 0 0 0 0 0 0 0 0 0 1 199 95 240 305 463 524 729 750 825 951 989 1284 1516 1486
0 0 0 0 0 0 0 3 0 0 0 0 4 5 0 0 0 0 0 0 0 0 0 0 0 0 0 1 0 0 36 110 141 40 17 42 490 435 605 526 801 1170 1180 1145
0 0 0 0 0 0 0 0 0 0 0 0 0 15 0 0 0 0 0 0 0 0 0 0 0 9 4 0 3 40 31 38 9 4 0 106 300 177 178 250 512 770 745 354
0 0 0 0 0 0 0 0 0 0 0 0 1 68 12 0 0 2 0 3 0 0 0 0 0 0 5 1 0 0 8 12 15 0 0 2 12 91 74 63 202 503 767 386
0 0 0 0 0 5 4 0 0 0 0 1 0 35 31 0 14 44 30 13 12 1 0 0 0 3 7 8 10 0 0 15 16 0 0 0 1 11 54 46 112 248 540 592
0 0 3 15 8 0 0 1 6 0 0 0 0 14 2 69 43 112 82 54 30 32 24 24 15 3 10 18 14 20 52 35 21 8 2 11 39 110 114 38 78 59 100 485
0 12 25 17 0 1 15 2 1 4 1 0 0 9 85 56 31 114 46 105 102 65 30 32 49 25 66 46 77 32 3 2 0 0 1 10 5 20 26 88 62 18 43 153
1 0 0 10 9 12 15 3 8 10 6 16 9 39 25 65 103 160 17 91 33 113 179 160 33 107 195 119 53 33 36 11 16 32 37 36 37 25 9 29 18 36 9 28
1 7 32 9 16 2 0 0 11 13 12 51 83 134 73 99 45 93 79 95 124 68 81 25 113 231 171 109 69 15 2 0 0 8 20 53 51 49 50 47 58 90 85 285
15 17 0 5 0 2 15 21 43 70 97 54 20 78 28 98 116 174 59 64 80 106 15 26 114 69 33 26 36 9 6 3 0 1 13 37 40 61 63 80 79 106 110 14
19 13 0 0 16 43 16 10 17 19 11 8 24 20 21 38 61 70 86 63 60 53 77 75 47 22 4 3 11 4 5 5 8 1 0 8 30 98 164 240 233 191 113 167
4 9 6 30 25 14 21 17 25 18 19 14 11 30 32 30 17 15 27 26 50 58 12 0 0 10 9 7 3 2 7 10 5 8 6 3 97 265 338 351 318 378 187 58
2 4 3 38 27 37 5 19 60 33 21 41 17 17 15 35 22 18 23 58 13 2 6 2 10 2 0 0 5 10 8 4 10 8 0 3 158 394 448 419 96 427 458 591

GFSNW_con_mlcape_027.txt.gz
CAPE
2 0 0 0 0 0 0 0 0 0 0 0 0 0 0 0 0 0 0 0 0 0 0 0 0 0 0 0 0 0 1 0 0 0 0 0 0 0 1 1 1 0 17 131
0 0 0 0 0 0 0 0 0 0 0 0 0 0 0 0 0 0 0 0 0 0 0 0 17 1 0 0 0 0 0 0 0 0 0 9 4 5 0 0 0 0 0 22
0 0 0 0 0 0 0 0 0 0 0 0 0 0 0 0 0 0 0 0 0 0 0 0 0 0 0 0 0 0 0 0 28 5 52 1 0 0 4 2 0 0 0 48
0 0 0 0 0 0 0 0 0 0 0 0 0 0 0 0 0 0 0 0 0 0 0 0 0 0 0 0 0 0 0 0 9 17 2 0 0 0 38 31 21 0 0 115
0 0 0 0 0 0 0 0 0 0 0 0 0 0 0 0 0 0 0 0 0 0 0 0 3 53 67 73 0 0 0 0 0 0 0 0 0 0 0 0 0 0 26 156
3 1 0 0 0 0 0 0 0 0 0 0 0 0 0 0 0 0 0 0 0 0 4 0 0 1 10 36 3 5 0 5 0 0 17 6 2 75 34 3 73 183 1 129
3 1 0 0 0 0 0 0 0 0 0 0 0 0 0 0 0 0 0 0 0 0 0 0 0 0 0 0 2 8 213 93 163 132 185 6 93 52 2 14 630 389 117 58
2 0 0 0 0 0 0 0 0 0 0 0 0 0 0 0 0 0 0 0 0 0 0 0 0 0 0 0 0 0 0 3 16 6 8 17 42 63 49 57 551 460 352 91
1 1 0 0 0 0 0 0 0 0 0 0 0 0 0 0 0 0 0 0 0 0 0 0 0 0 0 0 0 0 0 0 0 0 0 0 26 2 0 67 319 154 70 26
0 4 1 0 0 0 0 0 0 0 0 0 0 0 0 0 0 0 0 0 0 0 0 0 0 0 0 0 0 0 0 0 0 0 0 0 0 0 5 0 141 220 52 5
0 1 2 0 0 0 0 0 0 0 0 0 0 0 0 0 0 0 0 0 0 0 0 0 0 0 0 0 0 0 0 0 0 0 0 0 419 65 107 162 142 1343 695 131
0 0 0 1 0 0 0 0 0 0 0 0 0 0 0 0 0 0 0 0 0 26 0 0 0 0 0 0 0 3 0 0 0 0 0 1786 1780 1889 1758 1643 1631 1724 1421 1771
0 0 0 0 0 0 0 0 0 0 0 0 0 0 0 0 0 0 0 0 0 0 0 0 0 5 0 1 29 1 136 138 31 76 661 764 867 793 850 1393 1504 1360 1685 1460
0 0 0 0 0 0 0 0 0 0 0 0 0 0 0 0 0 0 0 0 0 0 0 0 0 0 0 0 0 7 49 95 78 491 441 453 104 0 4 547 1105 1330 1199 1164
0 0 0 0 0 0 0 0 0 0 0 0 0 0 0 0 0 0 0 0 0 0 0 0 0 0 0 0 0 6 0 34 43 135 136 375 464 105 0 507 1154 1333 1187 993
0 0 0 0 0 0 0 0 0 0 0 0 0 0 0 0 0 0 0 0 0 0 0 0 0 0 0 0 0 73 18 75 118 22 6 5 116 280 104 513 935 1153 1009 690
0 0 0 0 0 0 0 0 0 0 0 0 0 6 0 0 0 0 0 0 0 0 0 0 0 0 0 0 0 15 21 16 0 0 0 24 108 31 15 47 925 752 554 353
0 0 0 0 0 0 0 0 0 0 0 0 0 44 2 0 0 0 0 0 0 0 0 0 0 0 0 0 0 0 1 0 1 1 0 0 0 55 35 0 37 406 488 280
0 0 0 0 0 0 0 0 0 0 0 0 0 0 14 45 1 11 0 0 1 0 0 0 0 0 0 0 0 0 0 0 0 0 0 0 0 0 1 22 190 147 310 476
0 0 0 1 2 0 0 0 0 0 0 0 0 0 1 0 34 62 97 40 4 5 0 0 0 0 0 0 9 14 0 0 0 0 0 0 0 0 0 10 0 13 1 206
0 1 10 15 0 0 2 4 1 0 0 0 0 0 2 9 20 21 93 52 117 27 37 17 28 41 105 113 69 53 25 0 0 1 0 0 0 0 0 0 0 8 44 23
0 0 0 0 1 3 3 0 0 0 0 9 2 0 107 46 168 61 29 6 26 5 68 133 38 88 215 107 71 36 17 17 26 0 0 0 0 0 1 13 2 4 48 126
0 0 4 2 3 1 0 0 0 0 14 149 101 124 160 146 163 106 0 0 33 30 156 32 45 163 161 110 65 4 1 0 0 0 0 0 0 0 0 5 37 26 50 178
1 13 0 0 0 0 0 6 59 78 116 110 74 167 102 112 97 94 9 46 86 72 54 13 164 51 6 4 0 0 0 0 0 0 0 0 0 0 0 14 93 141 114 124
6 14 0 0 0 0 112 71 15 59 61 5 33 59 79 32 14 47 66 18 2 54 41 105 86 30 8 0 1 0 0 0 0 1 0 0 0 0 0 51 160 93 102 208
9 4 0 15 28 9 11 14 35 17 4 9 15 15 14 14 9 14 9 16 31 0 0 0 1 6 0 0 0 0 0 0 0 0 0 0 0 0 0 59 146 114 80 334
1 14 1 1 13 21 25 22 7 14 19 14 27 13 29 29 19 7 10 19 0 4 6 9 5 0 0 0 0 0 3 2 4 1 4 5 1 0 28 166 199 0 0 22

GFSNW_con_mlcape_030.txt.gz
CAPE
0 0 0 0 0 0 0 0 0 0 0 0 0 0 0 0 0 0 0 0 0 0 0 0 0 0 0 0 0 0 0 0 0 0 0 0 0 0 0 0 0 0 0 0
0 2 0 0 0 0 0 0 0 0 0 0 0 0 0 0 0 0 0 0 0 0 0 0 0 0 0 0 0 0 0 0 0 0 0 0 0 1 0 0 0 0 0 0
2 2 0 0 0 0 0 0 0 0 0 0 0 0 0 0 0 0 0 0 0 0 0 0 0 0 0 0 0 0 0 0 0 0 0 0 0 0 0 0 0 0 0 0
2 1 1 0 0 0 0 0 0 0 0 0 0 0 0 0 0 0 0 0 0 0 0 0 0 0 0 0 0 0 0 0 0 0 0 0 0 0 0 0 0 0 0 0
3 1 1 0 0 0 0 0 0 0 0 0 0 0 0 0 0 0 0 0 0 0 0 0 0 0 0 0 0 0 0 0 0 0 0 0 0 0 0 4 52 1 0 0
3 2 1 0 0 0 0 0 0 0 0 0 0 0 0 0 0 0 0 0 0 0 0 0 0 0 0 15 4 8 0 0 0 0 0 0 0 3 8 345 359 233 43 0
1 4 1 1 0 0 0 0 0 0 0 0 0 0 0 0 0 0 0 0 0 0 0 0 0 0 0 0 0 42 55 7 44 0 4 0 10 62 512 433 417 201 89 12
0 6 2 1 0 0 0 0 0 0 0 0 0 0 0 0 0 0 0 0 0 0 0 0 0 0 0 0 0 0 2 16 7 2 0 0 21 65 41 167 321 275 118 53
0 4 3 1 0 0 0 0 0 0 0 0 0 0 0 0 0 0 0 0 0 0 0 0 0 0 0 0 0 0 0 0 0 0 0 0 0 2 21 116 0 306 143 110
0 0 1 1 0 0 0 0 0 0 0 0 0 0 0 0 0 0 0 0 0 0 0 0 0 0 0 0 0 0 0 0 0 0 0 0 0 0 34 0 0 85 9 0
0 1 0 0 0 0 0 0 0 0 0 0 0 0 0 0 0 0 0 0 0 0 0 0 0 0 0 0 0 0 0 0 0 0 0 0 886 659 48 63 391 131 2 0
1 0 0 0 0 0 0 0 0 0 0 0 0 0 0 0 0 0 0 0 0 0 2 0 0 0 0 0 0 0 0 0 0 0 0 935 664 754 949 472 702 475 51 3
1 0 0 0 0 0 0 0 0 0 0 0 0 0 0 0 0 0 0 0 0 0 0 0 0 18 0 0 0 0 0 0 45 176 399 109 281 528 865 1034 1086 1123 598 94
0 0 0 0 0 0 0 0 0 0 0 0 0 0 0 0 0 0 0 0 0 0 0 0 0 0 0 0 0 0 0 0 124 195 187 150 1 57 39 580 284 10 967 746
0 0 0 0 0 0 0 0 0 0 0 0 0 0 0 0 0 0 0 0 0 0 0 0 0 0 0 0 0 0 13 22 2 79 128 236 157 0 20 590 968 942 747 626
0 0 0 0 0 0 0 0 0 0 0 0 0 0 0 0 0 0 0 0 0 0 0 0 0 0 0 0 0 9 0 25 9 3 9 58 174 96 88 411 747 627 548 623
0 0 0 0 0 0 0 0 0 0 0 0 0 0 0 0 0 0 0 0 0 0 0 0 0 0 0 0 0 8 1 0 0 0 0 0 1 6 36 472 563 608 480 413
0 0 0 0 0 0 0 0 0 0 0 0 0 0 0 0 0 0 0 0 0 0 0 0 0 0 0 0 0 0 0 0 0 0 0 0 0 0 0 123 338 237 169 346
0 0 0 0 0 0 0 0 0 0 0 0 0 0 3 0 0 0 0 0 0 0 0 0 0 0 0 0 0 0 0 0 0 0 0 0 0 0 0 10 144 149 259 317
0 0 0 0 0 0 0 0 0 0 0 0 0 0 3 0 0 9 22 6 0 0 0 0 0 0 0 0 0 0 0 0 0 0 0 0 0 0 0 0 0 0 24 127
0 0 2 0 0 0 0 0 0 0 0 0 0 0 0 0 0 2 13 15 19 8 0 6 1 0 7 9 14 11 0 0 0 0 0 3 0 0 0 0 0 0 0 4
0 0 0 0 0 0 0 0 0 0 0 0 0 0 0 5 8 7 3 0 0 0 2 33 7 16 13 17 8 10 6 0 0 0 4 0 0 0 0 5 17 19 14 44
0 0 0 0 0 0 0 0 0 0 0 158 46 41 40 58 44 0 0 0 0 0 17 12 23 11 4 1 0 0 0 0 0 0 0 0 0 0 0 0 1 25 43 64
0 2 0 0 0 0 0 0 6 70 86 59 34 72 47 19 16 7 0 0 0 21 0 7 25 5 0 0 0 0 0 0 0 0 0 0 0 0 0 0 0 0 11 34
0 4 0 0 0 0 0 4 7 57 20 9 20 51 21 7 18 1 4 9 0 1 1 55 13 1 0 0 0 0 0 0 0 0 0 0 0 0 0 0 0 0 3 11
2 0 0 0 10 1 1 0 0 4 0 3 5 12 1 0 3 1 5 8 2 0 0 0 0 0 0 0 0 0 0 0 0 0 0 0 0 0 0 0 0 0 0 18
0 0 0 0 0 12 16 21 1 1 4 4 6 0 0 7 16 10 7 1 0 0 0 1 0 0 0 0 0 0 0 0 0 2 1 2 3 4 3 0 0 0 0 0

GFSNW_con_mlcape_033.txt.gz
CAPE
4 3 0 0 0 0 0 0 0 0 0 0 0 0 0 0 0 0 0 0 0 0 0 0 0 0 0 0 0 0 0 0 0 0 0 0 0 0 0 0 0 0 0 0
5 1 0 0 0 1 0 0 0 0 0 0 0 0 0 0 0 0 0 0 0 0 0 0 0 0 0 0 0 0 0 0 0 0 0 0 0 0 0 0 0 0 0 0
2 1 0 0 0 0 0 0 0 0 0 0 0 0 0 0 0 0 0 0 0 0 0 0 0 0 0 0 0 0 0 0 0 0 0 0 0 0 0 0 0 0 0 0
2 1 0 0 0 0 0 0 0 0 0 0 0 0 0 0 0 0 0 0 0 0 0 0 0 0 0 0 0 0 0 0 0 0 0 0 0 0 0 0 0 0 0 0
3 3 0 0 0 0 0 0 0 0 0 0 0 0 0 0 0 0 0 0 0 0 0 0 0 0 0 0 0 0 0 0 0 0 0 0 0 0 0 5 133 6 9 0
0 3 0 0 0 0 0 0 0 0 0 0 0 0 0 0 0 0 0 0 0 0 0 0 0 0 0 0 0 0 0 0 0 0 0 0 0 13 45 215 231 116 9 3
1 1 2 0 0 0 0 0 0 0 0 0 0 0 0 0 0 0 0 0 0 0 0 0 0 0 0 0 0 1 0 0 0 0 0 0 8 391 306 331 300 110 41 44
1 1 1 1 0 0 0 0 0 0 0 0 0 0 0 0 0 0 0 0 0 0 0 0 0 0 0 0 0 0 0 0 0 0 0 10 278 109 2 175 170 200 81 207
0 2 0 0 0 0 0 0 0 0 0 0 0 0 0 0 0 0 0 0 0 0 0 0 0 0 0 0 0 0 0 0 0 0 0 0 0 3 186 14 0 341 91 59
0 2 1 0 0 0 0 0 0 0 0 0 0 0 0 0 0 0 0 0 0 0 0 0 0 0 0 0 0 0 0 0 0 0 0 0 0 186 72 0 0 397 221 102
0 1 1 0 0 0 0 0 0 0 0 0 0 0 0 0 0 0 0 0 0 0 0 0 0 0 0 0 0 0 0 0 0 0 0 0 684 860 12 25 506 300 63 10
0 0 1 0 0 0 0 0 0 0 0 0 0 0 0 0 0 0 0 0 0 0 0 0 0 0 0 0 0 0 0 0 0 0 0 698 801 911 817 311 722 469 203 9
0 0 0 0 0 0 0 0 0 0 0 0 0 0 0 0 0 0 0 0 0 0 0 0 0 0 0 0 0 0 0 0 48 56 287 606 746 1121 1289 1362 1239 1169 615 51
0 0 0 0 0 0 0 0 0 0 0 0 0 0 0 0 0 0 0 0 0 0 0 0 0 0 0 0 0 0 0 0 183 245 169 69 3 267 362 311 154 355 883 360
0 0 0 0 0 0 0 0 0 0 0 0 0 0 0 0 0 0 0 0 0 0 0 0 0 0 0 0 0 3 0 1 2 78 152 106 112 112 434 847 931 840 806 653
0 0 0 0 0 0 0 0 0 0 0 0 0 0 0 0 0 0 0 0 0 0 0 0 0 0 0 0 0 27 5 0 1 23 85 105 57 127 390 916 915 729 450 352
0 0 0 0 0 0 0 0 0 0 0 0 0 0 0 0 0 0 0 0 0 0 0 0 0 0 0 0 0 68 26 0 4 28 24 39 17 42 617 803 793 613 460 336
0 0 0 0 0 0 0 0 0 0 0 0 0 0 0 0 0 0 0 0 0 0 0 0 0 0 0 0 0 0 36 4 0 0 2 9 0 2 144 464 479 251 156 218
0 0 0 0 0 0 0 0 0 0 0 0 0 0 13 0 0 0 0 0 0 0 0 0 0 0 0 0 0 0 0 18 5 1 0 0 0 0 13 106 213 173 145 213
0 0 0 0 0 0 0 0 0 0 0 0 0 0 1 0 0 0 0 0 0 0 0 0 0 0 0 0 0 0 0 0 0 5 0 0 0 0 0 0 0 0 0 133
0 0 0 0 0 0 0 0 0 0 0 0 0 0 0 0 0 1 4 6 0 0 0 0 0 0 0 0 0 0 0 0 1 3 0 0 0 0 0 0 0 0 0 18
0 0 0 0 0 0 0 0 0 0 0 0 0 0 0 0 1 1 4 1 0 0 0 11 0 2 0 0 0 0 0 0 0 0 0 0 0 4 3 0 0 8 0 3
0 0 0 0 0 0 0 0 0 0 0 23 14 18 18 11 8 0 0 0 0 0 4 4 0 0 0 0 0 0 0 0 0 0 0 0 0 0 0 0 0 0 0 0
0 3 0 0 0 0 0 0 0 0 26 9 25 62 34 6 16 0 0 0 0 3 0 2 3 0 0 0 0 0 0 0 0 0 0 0 0 0 0 0 0 0 0 0
0 2 0 0 0 0 0 0 0 10 0 1 2 2 0 2 7 0 1 14 5 6 6 39 2 0 0 0 0 0 0 0 0 0 0 0 0 0 0 0 0 0 0 0
0 0 0 0 0 2 0 0 0 2 2 0 0 27 9 4 2 4 10 3 0 0 0 0 0 0 0 0 0 0 0 0 0 0 0 0 0 0 0 0 0 0 0 0
0 0 0 0 0 0 7 5 9 0 0 0 3 0 0 0 3 0 0 0 0 0 0 0 0 0 0 0 0 0 0 0 0 0 1 4 2 5 3 0 2 0 0 0

GFSNW_con_mlcape_036.txt.gz
CAPE
1 0 0 0 0 0 0 0 0 0 0 0 0 0 0 0 0 0 0 0 0 0 0 0 0 0 0 0 0 0 0 0 0 0 0 0 0 0 0 0 0 0 0 0
1 0 0 0 0 0 0 0 0 0 0 0 0 0 0 0 0 0 0 0 0 0 0 0 0 0 0 0 0 0 0 0 0 0 0 0 0 0 0 0 0 0 0 0
2 0 0 0 0 0 0 0 0 0 0 0 0 0 0 0 0 0 0 0 0 0 0 0 0 0 0 0 0 0 0 0 0 0 0 0 0 0 0 0 0 0 0 0
0 1 1 0 0 0 0 0 0 0 0 0 0 0 0 0 0 0 0 0 0 0 0 0 0 0 0 0 0 0 0 0 0 0 0 0 0 0 0 0 0 0 0 0
1 1 2 0 0 0 0 0 0 0 0 0 0 0 0 0 0 0 0 0 0 0 0 0 0 0 0 0 0 0 0 0 0 0 0 0 0 0 0 0 0 0 0 0
2 3 3 0 0 0 0 0 0 0 0 0 0 0 0 0 0 0 0 0 0 0 0 0 0 0 0 0 0 0 0 0 0 0 0 0 0 0 11 91 121 81 0 0
2 3 2 1 0 0 0 0 0 0 0 0 0 0 0 0 0 0 0 0 0 0 0 0 0 0 0 0 0 0 0 0 0 1 0 0 17 229 191 229 229 111 26 20
1 3 2 1 0 0 0 0 0 0 0 0 0 0 0 0 0 0 0 0 0 0 0 0 0 0 0 0 0 0 0 0 0 0 0 1 279 185 61 112 39 105 45 147
1 2 2 0 0 0 0 0 0 0 0 0 0 0 0 0 0 0 0 0 0 0 0 0 0 0 0 0 0 0 0 0 0 0 0 0 9 0 227 0 0 160 160 197
1 3 1 0 0 0 0 0 0 0 0 0 0 0 0 0 0 0 0 0 0 0 0 0 0 0 0 0 0 0 0 0 1 0 0 0 0 101 219 0 0 26 263 71
0 2 1 0 0 0 0 0 0 0 0 0 0 0 0 0 0 0 0 0 0 0 0 0 0 0 0 0 0 0 0 0 0 0 0 0 245 835 13 6 401 455 344 48
0 1 1 0 0 0 0 0 0 0 0 0 0 0 0 0 0 0 0 0 0 0 0 0 0 0 0 0 0 0 0 2 0 0 0 344 561 791 690 370 594 372 155 40
0 0 0 0 0 0 0 0 0 0 0 0 0 0 0 0 0 0 0 0 0 0 0 0 0 0 0 0 0 0 7 12 139 109 107 593 629 728 1147 1158 1137 1225 376 37
0 0 0 0 0 0 0 0 0 0 0 0 0 0 0 0 0 0 0 0 0 0 0 0 0 0 0 0 0 0 0 23 297 245 329 343 294 368 284 197 413 842 1039 293
0 0 0 0 0 0 0 0 0 0 0 0 0 0 0 0 0 0 0 0 0 0 0 0 0 0 0 0 0 22 4 1 9 118 164 156 231 274 388 825 875 911 886 781
0 0 0 0 0 0 0 0 0 0 0 0 0 0 0 0 0 0 0 0 0 0 0 0 0 0 0 0 1 24 22 8 0 186 112 131 181 269 499 987 772 516 228 179
0 0 0 0 0 0 0 0 0 0 0 0 0 0 0 0 0 0 0 0 0 0 0 0 0 0 0 0 0 51 53 39 56 166 79 48 44 331 772 867 707 561 450 373
0 0 0 0 0 0 0 0 0 0 0 0 0 0 0 0 0 0 0 0 0 0 0 0 0 0 0 0 0 0 16 21 66 70 3 6 11 44 423 533 491 285 156 150
0 0 0 0 0 0 0 0 0 0 0 0 0 0 6 0 0 0 0 0 0 0 0 0 0 0 0 0 0 0 0 21 14 4 1 0 0 1 60 135 132 90 68 142
0 0 0 0 0 0 0 0 0 0 0 0 0 0 4 0 0 0 0 0 0 0 0 0 0 0 0 0 0 0 0 0 0 0 0 0 0 0 0 0 0 0 0 0
0 0 0 0 0 0 0 0 0 0 0 0 0 0 0 0 0 0 0 0 0 0 0 0 0 0 0 0 0 0 0 0 0 0 0 0 0 0 0 0 0 0 0 0
0 0 0 0 0 0 0 0 0 0 0 0 0 0 0 0 0 0 0 0 0 0 0 1 0 0 0 0 0 0 0 0 0 0 0 0 0 0 0 0 3 6 0 0
0 0 0 0 0 0 0 0 0 0 0 0 0 0 0 4 1 0 0 0 0 0 0 0 0 0 0 0 0 0 0 0 0 0 0 0 0 0 0 0 0 0 0 0
0 0 0 0 0 0 0 0 0 0 0 20 4 42 20 1 2 6 0 0 0 0 0 0 0 0 0 0 0 0 0 0 0 0 0 0 0 0 0 0 0 0 0 0
0 2 0 0 0 0 0 0 0 0 0 0 1 4 0 1 4 1 0 6 0 2 1 0 3 3 0 0 0 0 0 0 0 0 0 0 0 0 0 0 0 0 0 0
0 0 0 0 0 0 0 0 0 0 0 0 0 11 3 0 0 0 0 0 0 0 0 0 0 0 0 0 0 0 0 0 0 0 0 0 0 0 0 0 0 0 0 0
0 0 0 0 0 0 0 0 0 0 0 2 0 0 0 0 0 0 0 0 0 0 0 0 0 0 0 0 0 0 0 0 0 0 0 0 0 4 3 2 2 0 0 0

GFSNW_con_mlcape_042.txt.gz
CAPE
0 0 0 0 0 0 0 0 0 0 0 0 0 0 0 0 0 0 0 0 0 0 0 0 0 0 0 0 0 0 0 0 0 0 0 0 1 15 23 9 29 2 46 91
1 0 0 0 0 0 0 0 0 0 0 0 0 0 0 0 0 0 0 0 0 0 0 0 0 0 0 0 0 0 0 0 0 0 0 0 1 0 38 190 134 56 45 150
1 0 0 0 0 0 0 0 0 0 0 0 0 0 0 0 0 0 0 0 0 0 0 0 0 0 0 0 0 0 0 0 0 0 1 17 69 11 3 51 56 170 54 126
0 0 0 0 0 0 0 0 0 0 0 0 0 0 0 0 0 0 0 0 0 0 0 0 0 0 0 0 0 0 0 0 0 0 2 2 96 40 0 50 108 142 66 66
1 0 0 0 0 0 0 0 0 0 0 0 0 0 0 0 0 0 0 0 0 0 0 0 0 0 0 0 0 0 0 0 0 0 0 0 0 40 23 57 161 154 120 149
2 1 0 0 0 0 0 0 0 0 0 0 0 0 0 0 0 0 0 0 0 0 0 0 0 0 0 86 102 36 13 0 33 0 3 0 0 19 35 98 113 188 165 767
1 0 0 0 0 0 0 0 0 0 0 0 0 0 0 0 0 0 0 0 0 0 0 0 0 0 0 0 103 340 171 130 90 3 120 0 234 222 117 310 352 482 685 734
0 0 0 0 0 0 0 0 0 0 0 0 0 0 0 0 0 0 0 0 0 0 0 0 20 12 3 0 13 165 233 185 101 157 80 344 483 692 561 505 393 661 726 950
0 0 0 0 0 0 0 0 0 0 0 0 0 0 0 0 0 0 0 0 0 0 0 0 0 4 13 26 35 21 194 355 234 171 172 170 430 628 716 430 313 652 955 1143
0 0 0 0 0 0 0 0 0 0 0 0 0 0 0 0 0 0 0 0 2 1 0 0 1 10 17 14 10 62 132 137 94 158 216 162 371 682 297 51 355 666 947 1282
0 0 0 0 0 0 0 0 0 0 0 0 0 0 0 0 0 0 0 7 34 60 29 18 42 6 13 24 32 70 59 46 100 168 131 143 718 773 309 1074 1575 1334 1091 1098
0 0 0 0 0 0 0 0 0 0 0 0 0 0 0 0 0 0 0 2 0 3 122 84 25 27 4 85 3 10 43 205 101 153 240 910 1234 1888 1848 2000 1890 1553 1219 1067
0 0 0 0 0 0 0 0 0 0 0 0 0 0 0 0 0 0 0 0 0 0 0 119 102 156 60 27 80 114 221 319 163 89 558 1365 1754 1755 1623 1447 2094 1560 1009 1106
0 0 0 0 0 0 0 0 0 0 0 0 0 0 0 0 0 0 0 0 0 0 0 40 89 65 5 45 35 62 146 239 690 315 789 1039 1670 1608 1372 1601 1970 1886 1233 1280
0 0 0 0 0 0 0 0 0 0 0 0 0 0 0 0 0 0 0 0 0 0 0 2 34 0 28 18 31 32 168 306 123 315 1308 1404 1816 1459 1487 1787 1787 1513 1478 1490
0 0 0 0 0 0 0 0 0 0 0 0 0 0 0 0 0 0 0 0 0 0 0 0 0 0 4 23 50 394 423 478 467 687 1106 1245 1293 1277 1930 1304 1076 1633 1601 1185
0 0 0 0 0 0 0 0 0 0 0 0 0 0 0 0 0 0 0 0 0 0 0 0 0 0 0 14 15 279 340 356 668 906 968 980 949 1226 1624 1613 1171 1052 1066 1016
0 0 0 0 0 0 0 0 0 0 0 0 0 0 0 0 0 0 0 0 0 0 0 0 0 0 0 0 8 78 124 202 701 708 417 297 894 1287 1054 1158 1001 744 585 615
0 0 0 0 0 0 3 0 0 0 0 0 0 0 37 0 0 0 0 0 0 0 0 0 0 0 0 0 0 0 25 93 235 230 530 228 316 684 787 651 394 111 51 2
0 0 0 0 2 0 0 0 0 0 0 0 0 0 22 70 68 40 56 15 0 0 0 0 0 0 0 0 0 0 0 0 24 117 326 241 254 237 192 90 19 0 0 0
0 0 3 0 0 0 0 0 0 0 0 0 0 0 3 38 128 97 121 87 74 4 8 0 1 0 14 0 0 0 0 0 5 92 119 96 96 70 39 13 2 0 0 0
0 0 0 0 0 0 0 0 0 0 0 0 0 0 0 17 260 161 176 78 95 15 63 5 2 112 71 5 0 0 0 0 0 0 1 10 16 15 15 11 4 0 0 0
0 0 0 0 0 0 0 0 0 0 0 0 2 0 0 47 271 186 171 66 47 134 29 26 144 165 147 96 31 0 0 0 0 0 0 0 0 0 0 0 0 0 0 0
3 4 0 0 0 0 0 0 3 4 4 58 181 46 51 169 90 123 34 115 100 54 38 97 214 313 191 54 0 0 0 0 0 0 0 0 0 0 0 0 0 0 0 0
7 1 0 0 0 0 0 0 0 0 0 150 200 172 170 116 70 85 55 48 25 70 122 224 338 299 69 0 0 0 0 0 0 0 0 0 0 0 0 0 0 0 0 0
0 2 4 3 1 2 1 2 2 0 70 163 133 78 58 63 104 47 35 19 73 203 342 274 144 16 1 0 0 0 0 0 0 0 0 0 0 1 4 5 8 8 8 10
1 10 11 14 11 20 18 46 67 72 153 109 94 21 16 105 51 39 70 177 327 354 344 253 83 1 0 0 0 3 4 4 1 0 0 2 5 13 21 24 27 11 0 0

GFSNW_con_mlcape_045.txt.gz
CAPE
0 0 0 0 0 0 0 0 0 0 0 0 0 0 0 0 0 0 0 0 0 0 0 0 0 0 0 0 0 0 0 0 0 9 0 0 7 63 3 53 99 107 11 26
0 0 0 0 0 0 0 0 0 0 0 0 0 0 0 0 0 0 0 0 0 0 0 0 0 0 0 0 0 0 0 0 0 0 2 1 7 60 115 177 173 247 106 126
0 0 0 0 0 0 0 0 0 0 0 0 0 0 0 0 0 0 0 0 0 0 0 0 0 0 0 0 0 0 0 0 0 28 10 81 26 1 2 7 128 134 73 113
0 0 0 0 0 0 0 0 0 0 0 0 0 0 0 0 0 0 0 0 0 0 0 0 0 0 0 0 0 0 0 0 0 0 7 91 138 119 53 0 75 133 13 15
0 0 0 0 0 0 0 0 0 0 0 0 0 0 0 0 0 0 0 0 0 0 0 0 2 0 1 0 0 0 0 0 0 0 1 5 29 66 105 7 34 60 69 81
0 0 0 0 0 0 0 0 0 0 0 0 0 0 0 0 0 0 0 0 0 0 0 0 0 0 0 58 198 37 1 1 0 0 1 1 2 6 138 109 91 204 188 781
0 0 0 0 0 0 0 0 0 0 0 0 0 0 0 0 0 0 0 0 0 0 0 0 0 0 0 0 11 67 200 143 52 3 23 0 32 4 70 129 150 166 796 769
0 0 0 0 0 0 0 0 0 0 0 0 0 0 0 0 0 0 0 0 0 0 0 0 0 0 0 0 0 83 57 310 76 37 31 54 262 190 221 184 146 143 660 939
0 0 0 0 0 0 0 0 0 0 0 0 0 0 0 0 0 2 0 0 0 0 0 0 0 0 0 0 1 25 93 235 338 144 63 127 144 227 293 274 469 387 731 881
0 0 0 0 0 0 0 0 0 0 0 0 0 0 0 0 0 0 41 0 0 0 0 0 0 0 1 18 43 60 68 194 133 175 166 298 415 501 777 491 682 685 848 871
0 0 0 0 0 0 0 0 0 0 0 0 0 0 0 0 0 0 1 0 57 44 2 2 2 4 28 38 60 315 74 144 129 133 121 322 255 610 463 1146 1351 724 828 1058
0 0 0 0 0 0 0 0 0 0 0 0 0 0 0 0 0 0 0 38 35 0 108 107 67 34 9 51 68 26 184 613 505 217 598 883 1703 2481 2072 2199 1610 1305 1265 1427
0 0 0 0 0 0 0 0 0 0 0 0 0 0 0 0 0 0 0 0 0 0 0 20 83 40 125 3 28 29 265 374 143 234 558 1381 1411 1811 1908 2154 2076 1446 1431 1494
0 0 0 0 0 0 0 0 0 0 0 0 0 0 0 0 0 0 0 0 0 0 0 12 23 2 4 30 88 61 209 15 194 100 595 802 1517 1791 1827 2084 2358 1522 1526 1603
0 0 0 0 0 0 0 0 0 0 0 0 0 0 0 0 0 0 0 0 0 0 0 3 13 8 3 70 34 34 78 511 230 626 1409 1168 2198 2031 2099 1989 1840 1758 1760 1872
0 0 0 0 0 0 0 0 0 0 0 0 0 0 0 0 0 0 0 0 0 0 0 0 0 0 0 19 45 472 274 165 242 940 1208 1577 1770 1919 2033 1695 1890 1867 1935 1889
0 0 0 0 0 0 0 0 0 0 0 0 0 0 0 0 0 0 0 0 0 0 0 0 0 0 0 0 16 40 251 467 988 1212 1244 1220 1407 1705 2013 1503 1447 1457 1494 1417
0 0 0 0 0 0 0 0 0 0 0 0 0 0 0 0 0 0 0 0 0 0 0 0 0 0 0 0 63 266 11 450 795 474 393 544 1429 1482 1419 1412 909 385 305 584
0 0 0 0 0 0 0 0 0 0 0 0 0 1 44 16 1 34 12 0 0 0 0 0 0 0 0 2 43 33 209 391 648 355 349 127 234 743 885 638 36 4 10 5
0 0 0 0 0 0 0 0 0 0 0 0 0 0 20 0 26 39 42 53 7 36 0 0 0 0 9 2 0 0 15 41 151 295 178 163 147 284 346 422 158 8 0 0
0 0 3 0 0 0 0 0 0 0 0 0 0 0 1 9 118 60 35 119 142 46 74 0 1 0 34 44 31 1 0 0 79 354 361 256 330 194 195 149 71 47 55 67
0 0 0 0 0 0 0 0 0 0 0 0 0 0 0 63 28 146 188 100 128 146 170 71 0 226 365 135 17 2 1 2 19 73 100 123 154 109 126 116 83 39 25 25
0 0 0 1 0 0 0 0 0 0 0 0 0 0 0 1 64 136 126 100 89 140 143 78 184 517 344 197 105 22 10 7 2 0 0 1 6 3 16 30 33 21 19 18
5 0 0 0 0 0 0 0 14 42 19 9 29 55 0 66 213 177 109 91 132 80 58 112 450 346 302 175 102 60 36 30 14 4 1 12 10 12 13 21 22 26 22 15
9 0 0 0 0 0 0 5 9 0 12 89 107 114 52 98 112 121 73 78 99 81 116 447 519 364 243 208 40 42 98 40 21 9 13 15 12 18 29 32 25 15 1 2
1 3 3 0 0 1 0 0 9 22 53 177 136 69 53 100 66 83 57 41 47 185 394 455 398 291 197 144 103 54 18 25 9 5 4 6 14 13 6 3 10 9 6 10
0 1 9 8 35 27 47 41 79 86 175 159 125 60 59 126 141 78 96 143 306 378 360 456 344 248 179 136 84 65 3 6 2 4 5 2 0 15 23 30 29 14 18 9

GFSNW_con_mlcape_048.txt.gz
CAPE
0 0 0 0 0 0 0 0 0 0 0 0 0 0 0 0 0 0 0 0 0 0 0 0 2 0 0 0 0 0 0 0 0 1 4 0 0 0 0 3 45 43 131 85
0 0 0 0 0 0 0 0 0 0 0 0 0 0 0 0 0 0 0 0 0 0 0 0 0 0 0 0 0 0 0 0 0 0 0 20 11 0 24 79 41 51 118 266
0 0 0 0 0 0 0 0 0 0 0 0 0 0 0 0 0 0 0 0 0 0 0 0 0 0 2 0 0 0 0 0 0 0 29 38 28 12 14 62 94 125 185 237
0 0 0 0 0 0 0 0 0 0 0 0 0 0 0 0 0 0 0 0 0 0 0 0 0 0 0 0 0 0 0 0 0 0 2 3 12 11 24 1 0 6 204 172
0 0 0 0 0 0 0 0 0 0 0 0 0 0 0 0 0 0 0 0 0 0 0 0 0 0 0 1 2 0 0 0 0 0 0 0 6 11 9 0 5 0 53 103
0 0 0 0 0 0 0 0 0 0 0 0 0 0 0 0 0 0 0 0 0 0 0 0 0 0 0 18 111 360 0 0 0 0 0 0 0 0 25 5 43 0 85 244
0 0 0 0 0 0 0 0 0 0 0 0 0 0 0 0 0 0 0 0 0 0 0 0 0 0 0 0 1 86 242 340 40 17 36 0 2 0 0 0 82 415 505 359
0 0 0 0 0 0 0 0 0 0 0 0 1 0 0 0 0 0 0 0 0 0 0 0 0 0 0 0 0 0 0 84 235 112 4 0 12 5 9 20 42 623 388 151
0 0 0 0 0 0 0 0 0 0 0 0 0 0 0 0 1 2 0 0 0 0 0 0 0 0 0 0 0 0 0 90 91 200 69 0 47 309 167 239 291 668 283 16
0 0 0 0 0 0 0 0 0 0 0 0 0 0 0 0 0 0 26 26 0 0 0 0 0 0 0 0 0 0 4 39 82 44 116 121 450 84 166 241 667 114 99 52
0 0 0 0 0 0 0 0 0 0 0 0 0 0 0 0 0 0 0 13 1 0 5 0 0 0 16 5 21 59 168 117 52 162 65 112 1276 49 88 4 77 228 436 2252
0 0 0 0 0 0 0 0 0 0 0 0 0 0 0 0 0 0 0 0 68 9 103 102 133 39 146 203 111 49 156 393 151 577 630 628 1166 1586 1990 1347 1229 1017 1056 1600
0 0 0 0 0 0 0 0 0 0 0 0 0 0 0 0 0 0 0 0 0 0 0 24 38 297 76 128 26 40 296 12 0 24 1076 859 597 1688 859 1398 1261 1141 1157 1332
0 0 0 0 0 0 0 0 0 0 0 0 0 0 0 0 0 0 0 0 0 0 0 0 5 51 27 5 0 0 15 15 246 888 781 583 1455 1471 1619 1850 1683 968 1039 1303
0 0 0 0 0 0 0 0 0 0 0 0 0 0 0 0 0 0 0 0 0 0 0 0 0 19 0 0 0 0 52 97 327 840 1142 925 1682 1761 1693 1617 1399 1232 1331 1536
0 0 0 0 0 0 0 0 0 0 0 0 0 0 0 0 0 0 0 0 0 0 0 0 0 10 0 0 0 5 3 27 1 188 1270 1721 1726 1757 1567 1544 1443 1536 1602 1728
0 0 0 0 0 0 0 0 0 0 0 0 0 0 0 0 0 0 0 0 0 0 0 0 0 0 0 0 1 123 98 0 121 115 812 1015 1082 1647 1453 1313 1078 912 699 609
0 0 0 0 0 0 0 0 0 0 0 0 0 3 0 0 0 0 0 0 0 0 0 0 1 0 0 0 0 2 0 0 43 15 99 551 1544 725 605 246 69 78 128 242
0 0 0 0 0 0 0 0 0 0 0 0 0 0 34 1 0 10 19 6 0 0 0 0 0 0 0 0 0 0 126 214 50 0 223 192 498 812 86 0 0 5 3 0
0 0 0 0 0 0 0 0 0 0 0 0 0 0 8 54 9 0 6 13 7 0 0 1 0 0 0 0 0 26 10 15 35 253 304 220 282 316 0 0 12 0 3 14
0 0 5 0 0 0 0 0 0 0 0 0 0 0 0 35 12 78 1 12 14 74 30 7 4 6 0 21 42 57 34 17 43 159 503 366 533 205 141 95 45 64 41 47
0 0 0 0 0 0 0 0 0 0 0 0 0 0 0 60 10 70 22 0 19 24 0 271 194 444 391 198 99 43 31 56 125 122 145 142 162 86 133 65 175 146 110 94
0 0 0 0 0 0 0 0 0 0 0 0 0 0 0 0 0 6 83 28 14 147 139 200 14 400 438 251 108 9 3 13 22 15 7 6 5 8 3 81 68 55 55 68
0 4 0 0 0 0 0 0 2 14 3 0 1 13 0 1 28 23 23 42 99 86 0 0 168 473 416 327 228 130 41 39 30 23 14 11 17 15 3 21 26 56 67 65
7 1 0 0 0 0 0 33 65 31 34 62 26 71 12 43 36 80 38 77 47 95 157 177 222 373 381 283 198 189 155 81 73 38 21 30 17 22 36 49 13 27 19 0
7 3 1 0 0 3 7 1 7 2 12 21 51 57 27 28 46 27 57 27 49 63 82 205 266 284 256 235 170 133 231 182 111 67 47 36 31 32 11 17 43 1 0 5
0 0 0 1 8 4 19 36 56 49 114 92 83 64 86 38 33 85 81 114 151 167 1 4 76 170 200 258 243 193 112 107 147 19 37 33 84 62 24 17 22 17 8 13